EW0200 Weather Reports


time (UTC)temp
C
wind
direction
speed
KPH
gust
KPH
rain 1hr
cm
rain 24hr
cm
rain mn
cm
humidity
%
barometer
mb
20260504012321 17 297 0.0 1.6 0.00 0.00 0.00 61 1004.1
20260504011316 17 3 0.0 4.8 0.00 0.00 0.00 63 1004.0
20260504010312 18 8 0.0 3.2 0.00 0.00 0.00 62 1003.9
20260504005328 19 245 1.6 3.2 0.00 0.00 0.00 61 1003.8
20260504004323 19 15 0.0 1.6 0.00 0.00 0.00 60 1003.8
20260504003311 19 320 0.0 6.4 0.00 0.00 0.00 62 1003.9
20260504002324 20 301 4.8 14.5 0.00 0.00 0.00 53 1003.7
20260504001319 20 274 3.2 11.3 0.00 0.00 0.00 57 1003.7
20260504000313 20 309 4.8 9.7 0.00 0.00 0.00 50 1003.7
20260503235330 20 286 0.0 4.8 0.00 0.00 0.00 58 1003.6
20260503234326 20 313 1.6 8.0 0.00 0.00 0.00 60 1003.6
20260503233339 20 311 6.4 12.9 0.00 0.00 0.00 54 1003.5
20260503232334 20 281 9.7 16.1 0.00 0.00 0.00 46 1003.5
20260503231351 20 290 4.8 12.9 0.00 0.00 0.00 52 1003.5
20260503230323 21 304 11.3 16.1 0.00 0.00 0.00 49 1003.5
20260503225318 21 288 11.3 24.1 0.00 0.00 0.00 47 1003.6
20260503224330 20 288 8.0 12.9 0.00 0.00 0.00 50 1003.7
20260503223312 20 293 6.4 14.5 0.00 0.00 0.00 49 1003.7
20260503222336 20 290 8.0 17.7 0.00 0.00 0.00 48 1003.9
20260503221324 20 291 12.9 17.7 0.00 0.00 0.00 47 1003.9
20260503220319 20 248 12.9 17.7 0.00 0.00 0.00 49 1004.0
20260503215312 20 273 6.4 19.3 0.00 0.00 0.00 49 1003.9
20260503214325 19 262 14.5 17.7 0.00 0.00 0.00 52 1004.0
20260503213321 19 291 11.3 19.3 0.00 0.00 0.00 52 1004.1
20260503212316 19 264 14.5 19.3 0.00 0.00 0.00 50 1004.1
20260503211332 19 252 12.9 24.1 0.00 0.00 0.00 50 1004.2
20260503210343 19 264 12.9 20.9 0.00 0.00 0.00 53 1004.2
20260503205313 18 249 14.5 19.3 0.00 0.00 0.00 52 1004.3
20260503204328 18 255 16.1 24.1 0.00 0.00 0.00 52 1004.5
20260503203343 18 245 17.7 24.1 0.00 0.00 0.00 54 1004.6
20260503202318 18 252 12.9 22.5 0.00 0.00 0.00 55 1004.8
20260503201312 18 257 19.3 27.4 0.00 0.00 0.00 52 1005.0
20260503200347 18 240 12.9 19.3 0.00 0.00 0.00 55 1005.2
20260503195321 17 278 12.9 22.5 0.00 0.00 0.00 55 1005.3
20260503194315 17 255 16.1 24.1 0.00 0.00 0.00 54 1005.4
20260503193332 17 300 12.9 19.3 0.00 0.00 0.00 56 1005.5
20260503192328 17 261 12.9 20.9 0.00 0.00 0.00 58 1005.7
20260503191342 17 264 14.5 20.9 0.00 0.00 0.00 56 1005.8
20260503190333 17 283 12.9 24.1 0.00 0.00 0.00 55 1005.9
20260503185341 16 276 14.5 30.6 0.00 0.00 0.00 55 1006.0
20260503184336 16 255 16.1 22.5 0.00 0.00 0.00 55 1006.0
20260503183326 16 250 16.1 30.6 0.00 0.00 0.00 54 1006.1
20260503182323 16 249 17.7 33.8 0.00 0.00 0.00 56 1006.1
20260503181338 16 248 17.7 27.4 0.00 0.00 0.00 56 1006.2
20260503180313 16 261 22.5 30.6 0.00 0.00 0.00 53 1006.3
20260503175330 16 248 20.9 30.6 0.00 0.00 0.00 54 1006.3
20260503174319 16 239 17.7 27.4 0.00 0.00 0.00 53 1006.5
20260503173335 15 241 22.5 32.2 0.00 0.00 0.00 57 1006.6
20260503172330 15 266 19.3 32.2 0.00 0.00 0.00 56 1006.9
20260503171348 15 248 17.7 35.4 0.00 0.00 0.00 60 1006.9
20260503170343 15 232 9.7 33.8 0.00 0.00 0.00 57 1007.0
20260503150339 13 243 11.3 30.6 0.00 0.00 0.00 64 1008.7
20260503140314 12 242 8.0 35.4 0.00 0.00 0.00 68 1009.5
20260503131352 12 262 24.1 30.6 0.00 0.00 0.00 66 1009.9
20260503130320 12 243 16.1 30.6 0.00 0.00 0.00 66 1009.9
20260503110319 11 233 11.3 19.3 0.00 0.00 0.00 58 1010.4
20260503090355 11 245 11.3 19.3 0.00 0.00 0.00 56 1011.5
20260503081343 11 248 9.7 16.1 0.00 0.00 0.00 55 1011.7
20260503080317 11 248 3.2 11.3 0.00 0.00 0.00 54 1011.8
20260503072330 11 242 6.4 14.5 0.00 0.00 0.00 55 1012.0
20260503071324 11 231 8.0 12.9 0.00 0.00 0.00 53 1011.9
20260503070320 11 233 4.8 12.9 0.00 0.00 0.00 53 1012.1
20260503060326 11 238 6.4 12.9 0.00 0.00 0.00 52 1012.5
20260503054311 11 236 6.4 17.7 0.00 0.00 0.00 50 1012.6
20260503053324 11 239 8.0 11.3 0.00 0.00 0.00 50 1012.8
20260503052319 12 250 4.8 9.7 0.00 0.00 0.00 48 1012.8
20260503051313 12 251 6.4 11.3 0.00 0.00 0.00 48 1012.8
20260503050326 12 243 6.4 11.3 0.00 0.00 0.00 49 1012.9
20260503045320 12 276 6.4 9.7 0.00 0.00 0.00 48 1013.0
20260503044315 12 259 6.4 14.5 0.00 0.00 0.00 48 1013.0
20260503043347 11 255 4.8 11.3 0.00 0.00 0.00 53 1013.1
20260503042320 10 153 0.0 0.0 0.00 0.00 0.00 55 1013.2
20260503041336 10 180 0.0 0.0 0.00 0.00 0.00 56 1013.3
20260503040331 10 131 0.0 0.0 0.00 0.00 0.00 55 1013.4
20260503035344 10 132 0.0 0.0 0.00 0.00 0.00 56 1013.4
20260503034320 10 133 0.0 0.0 0.00 0.00 0.00 59 1013.5
20260503033337 10 144 0.0 0.0 0.00 0.00 0.00 56 1013.6
20260503032312 10 142 0.0 0.0 0.00 0.00 0.00 57 1013.7
20260503031328 10 132 0.0 0.0 0.00 0.00 0.00 53 1013.9
20260503030400 10 131 0.0 0.0 0.00 0.00 0.00 54 1013.9
20260503025334 10 141 0.0 0.0 0.00 0.00 0.00 54 1013.9
20260503024326 10 141 0.0 1.6 0.00 0.00 0.00 53 1013.9
20260503023321 10 141 1.6 1.6 0.00 0.00 0.00 54 1013.9
20260503022317 11 143 0.0 0.0 0.00 0.00 0.00 51 1013.9
20260503021335 11 143 0.0 0.0 0.00 0.00 0.00 53 1013.9
20260503020323 11 143 0.0 1.6 0.00 0.00 0.00 54 1013.9
20260503015317 12 147 1.6 6.4 0.00 0.00 0.00 53 1013.8
20260503014334 13 245 6.4 8.0 0.00 0.00 0.00 51 1013.8
20260503013324 13 242 4.8 9.7 0.00 0.00 0.00 51 1013.6